Location: Devargunta
(16.7631°N, 80.9077°E)
Time: 12:42:34
(UTC+00:00)

SWIFT - Pass Details

Date: 19 January 2021
Orbit: 544 x 559 km, 20.6° (Epoch: 07 March)

Event Time Altitude Azimuth Distance (km) Brightness Sun altitude
Rises 12:50:55 0° 275° (W) 2,721 7.2 -6.6°
Reaches altitude 10° 12:53:15 10° 281° (W) 1,828 6.1 -7.1°
Maximum altitude 12:57:24 50° 357° (N) 705 2.8 -8.0°
Enters shadow 13:01:17 11° 73° (ENE) 1,735 4.2 -8.9°
